Location: Unspecified
(0.0000°N, 0.0000°E)
Time: 17:08:32
(UTC+00:00)

Vanguard 1 Rocket - Visible Passes

Search period start: 16 August 2017 00:00
Search period end: 26 August 2017 00:00
Orbit: 653 x 4224 km, 34.3° (Epoch: 16 August)

Date Brightness Start Highest point End Pass type
(mag) Time Alt. Az. Time Alt. Az. Time Alt. Az.
16 Aug 11.3 00:12:34 10° WNW 00:29:04 22° NNW 00:41:15 10° NNE visible
16 Aug 10.2 05:33:32 10° N 05:36:10 12° NNE 05:38:26 10° NE visible
16 Aug 10.6 17:47:11 10° SW 18:05:01 51° SE 18:29:59 10° ENE visible
16 Aug 10.6 20:14:52 10° WSW 20:38:29 75° NW 21:03:09 10° NE visible
16 Aug 11.2 22:51:23 10° W 23:13:15 33° NNW 23:30:20 10° NNE visible
17 Aug 11.3 01:43:46 10° NW 01:49:24 12° NNW 01:54:11 10° N visible
17 Aug 10.5 19:01:50 10° SW 19:22:52 83° SE 19:49:13 10° NE visible
17 Aug 11.0 21:33:33 10° WSW 21:57:18 47° NW 22:18:35 10° NE visible
18 Aug 11.4 00:19:01 10° WNW 00:33:26 19° NNW 00:44:22 10° NNE visible
18 Aug 9.8 05:34:48 10° NNW 05:40:12 19° NNE 05:44:07 10° ENE visible
18 Aug 10.5 17:50:02 10° SW 18:07:50 61° SE 18:33:40 10° ENE visible
18 Aug 10.8 20:18:19 10° WSW 20:41:20 64° NW 21:05:55 10° NE visible
18 Aug 11.3 22:56:47 10° W 23:17:05 28° NNW 23:33:14 10° NNE visible
19 Aug 11.3 01:49:04 10° NNW 01:54:21 12° N 01:58:49 10° N visible
19 Aug 10.4 04:23:00 10° NNW 04:27:41 14° NNE 04:31:20 10° NE visible
19 Aug 10.6 19:04:58 10° SW 19:25:37 85° NW 19:52:09 10° NE visible
19 Aug 11.2 21:37:58 10° W 22:00:40 40° NNW 22:21:19 10° NNE visible
20 Aug 11.4 00:25:31 10° NW 00:38:10 17° NNW 00:47:56 10° NNE visible
20 Aug 10.9 03:09:44 10° NNW 03:14:08 12° N 03:17:46 10° NNE visible
20 Aug 9.3 05:36:56 10° NNW 05:44:04 31° NNE 05:48:43 10° E visible
20 Aug 10.4 17:52:59 10° SW 18:10:34 73° SE 18:37:00 10° ENE visible
20 Aug 11.0 20:22:05 10° WSW 20:44:22 54° NW 21:08:36 10° NE visible
20 Aug 11.4 23:02:40 10° WNW 23:21:20 24° NNW 23:36:21 10° NNE visible
21 Aug 11.2 01:52:45 10° NNW 01:59:19 13° N 02:04:38 10° NNE visible
21 Aug 10.1 04:24:32 10° NNW 04:31:53 21° NNE 04:36:50 10° ENE visible
21 Aug 10.7 19:08:20 10° WSW 19:28:29 73° NW 19:54:54 10° NE visible
21 Aug 11.4 21:42:51 10° W 22:04:23 33° NNW 22:24:09 10° NNE visible
22 Aug 11.4 00:31:31 10° NW 00:43:10 16° N 00:52:11 10° NNE visible
22 Aug 10.7 03:11:06 10° NNW 03:18:39 16° N 03:24:06 10° NE visible
22 Aug 10.5 17:56:04 10° SW 18:13:20 85° SE 18:40:01 10° NE visible
22 Aug 11.2 20:26:11 10° W 20:47:42 46° NNW 21:11:15 10° NE visible
22 Aug 11.5 23:08:52 10° WNW 23:26:00 21° NNW 23:39:50 10° NNE visible
23 Aug 11.1 01:55:31 10° NNW 02:04:12 15° N 02:10:42 10° NE visible
23 Aug 9.6 04:26:35 10° NNW 04:35:55 30° NNE 04:41:32 10° E visible
23 Aug 10.9 19:11:55 10° WSW 19:31:32 62° NW 19:57:32 10° NE visible
23 Aug 11.5 21:48:13 10° WNW 22:08:31 29° NNW 22:27:09 10° NNE visible
24 Aug 11.4 00:36:33 10° NW 00:48:17 16° N 00:57:11 10° NNE visible
24 Aug 10.4 03:12:57 10° NNW 03:23:01 22° NNE 03:29:29 10° ENE visible
24 Aug 10.5 17:59:21 10° WSW 18:16:13 82° NW 18:42:49 10° NE visible
24 Aug 11.3 20:30:42 10° W 20:51:21 39° NNW 21:13:57 10° NE visible
24 Aug 11.5 23:14:59 10° NW 23:31:00 19° NNW 23:43:51 10° NNE visible
25 Aug 10.9 01:57:56 10° NNW 02:08:55 19° N 02:16:29 10° NE visible
25 Aug 9.1 04:28:55 10° NW 04:39:45 44° NNE 04:45:46 10° E visible
25 Aug 11.1 19:15:49 10° WSW 19:34:50 52° NNW 20:00:06 10° NE visible
25 Aug 11.6 21:53:58 10° WNW 22:13:04 25° NNW 22:30:28 10° NNE visible
